Location: Fort Worth, Tx
(32.7431°N, 97.3695°W)
Time: 21:05:37
(UTC-04:00)

Vanguard 1 Rocket - Pass Details

Date: 22 September 2024
Orbit: 650 x 4218 km, 34.3° (Epoch: 11 October)

Event Time Altitude Azimuth Distance (km) Brightness Sun altitude
Exits shadow 02:50:47 21° 85° (E) 4,046 10.6 -56.5°
Drops below altitude 10° 02:55:51 10° 76° (ENE) 5,495 11.5 -56.2°
Sets 03:01:41 0° 71° (ENE) 7,104 12.2 -55.9°
